THOR ABLESTAR DEB, 659

Orbit data source: Space-Track

THOR ABLESTAR DEB, 659 is space debris in LEO originally from a launch on Thu, 29 Jun 1961 UTC launched from the Air Force Eastern Test Range (AFETR). Debris objects in space refer to the collection of defunct objects orbiting the Earth. Examples of debris include non-operational satellites, rocket bodies, and fragments generated from explosions, collisions, or faulty payload assembly.

Loading next visibility...
Identifier
659, 1961-015HL
Orbit
LEO
Country
Flag of USUS
Related business
Manufacturer
Unknown
Mission
Spacecraft
Bus & Motor
Unknown
Mass
Unknown
Launch date (UTC)
1961-06-29 (65 years ago)
Launch vehicle
Unknown
Launch site
Air Force Eastern Test Range (AFETR)
Object type
Payload
Rocket body
Debris
Shape & HBR
Unknown shape, 0.2 m
Radar Cross Section
Small (<0.1 m²)

Expand to show TLE details & history
Last TLE update: 10 hours ago

TLE from 10 hours ago
0 THOR ABLESTAR DEB
1 00659U 61015HL  26033.66111620  .00000581  00000-0  16962-2 0  9990
2 00659  67.1631   1.5289 0585176  11.8867 159.7158 12.66763850973980
Epoch: 2026-02-02T15:52Z
TLE epoch observation values (Epoch: 2026-02-02T15:52:00.439Z)
Latitude
5.67174°
Longitude
168.28803°
Altitude
1,826.248 km
Speed
6.777 km/s
True Right ascension
11h 56m 34s
True Declination
5° 38' 33"
Sunlit
Object was in full shadow at epoch
Visualization orbit readout
Latitude
Unknown
Longitude
Unknown
Altitude
Unknown
Speed
Unknown
Apparent Right ascension
Unknown
Apparent Declination
Unknown
Sunlit
N/A
Visualization observer readout
Local Sidereal Time
03:34:43
Azimuth
Unknown
Elevation
Unknown
Doppler factor
Unknown
Orbital elements
Apogee altitude
1,848.378 km
Perigee altitude
938.812 km
Semi-major axis
7,771.732 km
Eccentricity
0.05852
Inclination
67.1631°
RAAN
1.5289°
Arg. of periapsis
11.8867°
True anomaly
161.89036°
Mean anomaly
159.7158°
Eccentric anomaly
160.81746°
Mean motion
3.16786 °/min
Orbital period
113.64 mins
BSTAR
0.0016962

Documentation

Showing up to 5 results
|